GEESAT 6-07

导读

GEESAT 6-07是中国于2025年9月24日发射的国产卫星,隶属于GEESAT系列卫星,该系列已在同期完成多颗卫星布局。作为中国商业航天领域的最新成果,卫星入轨后将服务于遥感观测领域,补充全球对地观测数据获取能力,为地理测绘、环境监测等应用场景提供支撑,进一步完善中国低轨卫星网络布局。

基本信息
目录编号:
65719
目录名称:
GEESAT 6-07
国际标识:
2025-214H
轨道中心:
EARTH
卫星名称:
GEESAT 6-07
卫星全名:
GEESAT 6-07
卫星状态:
在轨 (已飞行352 天)
发射日期:
2025-09-24 UTC
国别 :
中国 (CN)
星等 :
--
该卫星已列入 空间交会检测服务 Space Conjunction Data Service (SCDS) ,当前飞行风险评估等级: 无高风险
轨道信息
数据来源 国际轨道数据 AOE轨道数据
星历时间 2026-09-11T08:42:17+0800
12小时前
查看轨道信息
2026-09-10T12:00:00+0800
1天前
查看轨道信息
半长轴 6996.189km 6996.196km
偏心率 0.0009774 0.0009836
轨道倾角 49.980° 49.978°
近地点辐角 207.183° 204.268°
升交点赤经 270.069° 274.070°
平近点角 152.860° 224.873°
近地点 611.213km 611.177km
远地点 624.891km 624.941km
周期 97.063分钟 97.063分钟
每日圈数 14.835785 14.835761
详细信息
使用方式:
暂无
2D轨道图
3D轨道图
轨道高度分析图
轨道倾角分析图
轨道综合分析图
查看轨道综合分析图
与全量物体交会距离演化趋势
与全量物体交会风险概率演化趋势